Date String (YYYY-MM-DD hh:mm:ss) UTC,Instrument flags,Ambient pressure (hPa),Sample flow (lpm),Bypass flow (lpm),Sample temperature (°C),Ambient temperature (°C),ASC tube jacket temperature (°C),LED temperature (°C),Box temperature (°C),Sample RH (%),Span deviation,Mass concentration (μg/m³),Mass concentration (μg/m³),Mass concentration (μg/m³)
DateTimeUTC,F1_M11,P_M11,Q1_M11,Q2_M11,T1_M11,T2_M11,T3_M11,T4_M11,T5_M11,U1_M11,ZSPAN_M11,X0_M11,X2_M11,X1_M11
2021-12-04 15:00:00,,0827.1,5.00,0.00,22.6,22.0,00.0,31.6,24.4,16.7,0000.0,0010.25,0003.77,0002.64
2021-12-04 15:01:00,,0827.2,5.00,0.00,22.6,22.0,00.0,31.6,24.4,16.7,0000.0,0010.62,0003.72,0002.63
2021-12-04 15:02:00,,0827.2,4.98,0.00,22.7,22.0,00.0,31.6,24.5,16.7,0000.0,0010.80,0003.70,0002.63
2021-12-04 15:03:00,,0827.2,5.00,0.00,22.7,22.0,00.0,31.6,24.5,16.6,0000.0,0011.13,0003.68,0002.63
2021-12-04 15:04:00,,0827.2,5.01,0.00,22.7,22.0,00.0,31.6,24.5,16.8,0000.0,0010.86,0003.67,0002.62
2021-12-04 15:05:00,,0827.2,4.99,0.00,22.7,22.0,00.0,31.6,24.5,16.9,0000.0,0010.78,0003.61,0002.58
2021-12-04 15:06:00,,0827.2,5.00,0.00,22.7,22.0,00.0,31.6,24.5,16.8,0000.0,0011.33,0003.61,0002.55
2021-12-04 15:07:00,,0827.2,5.00,0.00,22.7,22.1,00.0,31.6,24.6,16.7,0000.0,0011.78,0003.60,0002.53
2021-12-04 15:08:00,,0827.2,5.01,0.00,22.7,22.1,00.0,31.6,24.6,16.5,0000.0,0011.67,0003.57,0002.52
2021-12-04 15:09:00,,0827.2,4.99,0.00,22.8,22.1,00.0,31.7,24.6,16.4,0000.0,0011.18,0003.57,0002.49
2021-12-04 15:10:00,,0827.2,5.01,0.00,22.8,22.1,00.0,31.7,24.6,16.4,0000.0,0010.98,0003.59,0002.49
2021-12-04 15:11:00,,0827.2,5.00,0.00,22.8,22.1,00.0,31.7,24.6,16.4,0000.0,0011.01,0003.59,0002.48
2021-12-04 15:12:00,,0827.1,4.99,0.00,22.8,22.2,00.0,31.7,24.7,16.4,0000.0,0010.72,0003.61,0002.46
2021-12-04 15:13:00,,0827.4,5.00,0.00,22.8,22.2,00.0,31.7,24.7,16.4,0000.0,0010.59,0003.60,0002.45
2021-12-04 15:14:00,,0827.4,5.00,0.00,22.9,22.2,00.0,31.7,24.7,16.3,0000.0,0010.01,0003.63,0002.44
2021-12-04 15:15:00,,0827.2,5.00,0.00,22.9,22.2,00.0,31.8,24.8,16.3,0000.0,0009.85,0003.65,0002.45
2021-12-04 15:16:00,,0827.2,4.99,0.00,22.9,22.2,00.0,31.8,24.8,16.3,0000.0,0009.67,0003.66,0002.45
2021-12-04 15:17:00,,0827.2,5.01,0.00,22.9,22.2,00.0,31.8,24.8,16.3,0000.0,0008.89,0003.62,0002.46
2021-12-04 15:18:00,,0827.1,5.00,0.00,22.9,22.3,00.0,31.8,24.8,16.3,0000.0,0008.39,0003.62,0002.47
2021-12-04 15:19:00,,0827.4,4.99,0.00,23.0,22.3,00.0,31.8,24.8,16.2,0000.0,0008.31,0003.64,0002.46
2021-12-04 15:20:00,,0827.5,5.01,0.00,23.0,22.3,00.0,31.8,24.9,16.3,0000.0,0009.34,0003.65,0002.45
2021-12-04 15:21:00,,0827.1,5.00,0.00,23.0,22.3,00.0,31.9,24.8,16.2,0000.0,0009.76,0003.69,0002.48
2021-12-04 15:22:00,,0827.0,4.98,0.00,23.0,22.3,00.0,31.9,24.9,16.1,0000.0,0009.68,0003.68,0002.46
2021-12-04 15:23:00,,0827.1,5.00,0.00,23.0,22.3,00.0,31.9,24.9,16.1,0000.0,0009.81,0003.66,0002.45
2021-12-04 15:24:00,,0827.1,5.01,0.00,23.1,22.3,00.0,31.9,24.9,16.0,0000.0,0010.24,0003.69,0002.46
2021-12-04 15:25:00,,0827.2,5.00,0.00,23.1,22.4,00.0,31.9,25.0,16.1,0000.0,0011.15,0003.69,0002.45
2021-12-04 15:26:00,,0827.1,5.01,0.00,23.1,22.4,00.0,31.9,24.9,15.8,0000.0,0011.08,0003.63,0002.42
2021-12-04 15:27:00,,0827.0,5.00,0.00,23.1,22.4,00.0,32.0,24.9,15.5,0000.0,0011.49,0003.61,0002.41
2021-12-04 15:28:00,,0827.1,5.00,0.00,23.1,22.4,00.0,32.0,25.0,15.6,0000.0,0011.73,0003.68,0002.42
2021-12-04 15:29:00,,0827.2,5.00,0.00,23.1,22.4,00.0,32.0,25.0,16.3,0000.0,0012.30,0003.66,0002.39
2021-12-04 15:30:00,,0827.2,5.00,0.00,23.2,22.4,00.0,32.0,25.0,16.1,0000.0,0012.99,0003.64,0002.39
2021-12-04 15:31:00,,0827.1,5.01,0.00,23.2,22.4,00.0,32.0,25.0,16.0,0000.0,0012.62,0003.59,0002.37
2021-12-04 15:32:00,,0827.1,5.00,0.00,23.2,22.5,00.0,32.1,25.0,16.0,0000.0,0012.76,0003.51,0002.34
2021-12-04 15:33:00,,0827.1,5.00,0.00,23.2,22.5,00.0,32.1,25.0,16.0,0000.0,0012.99,0003.50,0002.32
2021-12-04 15:34:00,,0827.1,5.00,0.00,23.2,22.5,00.0,32.1,25.0,16.6,0000.0,0013.00,0003.54,0002.32
2021-12-04 15:35:00,,0827.2,5.00,0.00,23.3,22.5,00.0,32.1,25.1,16.9,0000.0,0012.72,0003.53,0002.27
2021-12-04 15:36:00,,0827.3,4.99,0.00,23.3,22.5,00.0,32.1,25.1,16.3,0000.0,0013.35,0003.48,0002.25
2021-12-04 15:37:00,,0827.0,5.00,0.00,23.3,22.5,00.0,32.1,25.1,16.1,0000.0,0013.48,0003.46,0002.23
2021-12-04 15:38:00,,0827.2,5.00,0.00,23.3,22.5,00.0,32.2,25.1,16.2,0000.0,0013.40,0003.43,0002.22
2021-12-04 15:39:00,,0827.1,5.00,0.00,23.3,22.6,00.0,32.2,25.2,16.9,0000.0,0013.42,0003.35,0002.19
2021-12-04 15:40:00,,0827.0,5.02,0.00,23.4,22.6,00.0,32.2,25.2,17.2,0000.0,0012.58,0003.31,0002.17
2021-12-04 15:41:00,,0827.1,4.99,0.00,23.4,22.6,00.0,32.2,25.2,16.9,0000.0,0011.36,0003.28,0002.14
2021-12-04 15:42:00,,0827.3,5.00,0.00,23.4,22.6,00.0,32.2,25.2,16.9,0000.0,0011.00,0003.24,0002.12
2021-12-04 15:43:00,,0827.5,4.99,0.00,23.4,22.6,00.0,32.3,25.2,17.0,0000.0,0010.35,0003.24,0002.11
2021-12-04 15:44:00,,0827.1,5.01,0.00,23.4,22.7,00.0,32.3,25.2,16.9,0000.0,0009.97,0003.20,0002.10
2021-12-04 15:45:00,,0827.1,4.99,0.00,23.4,22.7,00.0,32.3,25.3,16.9,0000.0,0009.88,0003.15,0002.09
2021-12-04 15:46:00,,0827.6,5.02,0.00,23.5,22.7,00.0,32.3,25.3,16.6,0000.0,0010.20,0003.15,0002.10
2021-12-04 15:47:00,,0827.3,5.00,0.00,23.5,22.7,00.0,32.3,25.3,16.8,0000.0,0009.03,0003.15,0002.10
2021-12-04 15:48:00,,0827.1,4.99,0.00,23.5,22.8,00.0,32.4,25.4,16.4,0000.0,0008.76,0003.15,0002.11
2021-12-04 15:49:00,,0827.1,5.02,0.00,23.5,22.8,00.0,32.4,25.4,16.5,0000.0,0008.25,0003.19,0002.12
2021-12-04 15:50:00,,0827.0,5.00,0.00,23.6,22.8,00.0,32.4,25.4,16.4,0000.0,0008.01,0003.21,0002.15
2021-12-04 15:51:00,,0827.1,4.99,0.00,23.6,22.8,00.0,32.4,25.4,16.2,0000.0,0008.94,0003.26,0002.18
2021-12-04 15:52:00,,0827.3,5.01,0.00,23.6,22.9,00.0,32.4,25.5,16.2,0000.0,0009.50,0003.34,0002.20
2021-12-04 15:53:00,,0827.0,5.01,0.00,23.6,22.9,00.0,32.4,25.5,16.1,0000.0,0009.53,0003.42,0002.23
2021-12-04 15:54:00,,0827.1,4.99,0.00,23.6,22.9,00.0,32.5,25.5,16.3,0000.0,0009.63,0003.45,0002.28
2021-12-04 15:55:00,,0827.1,5.00,0.00,23.7,22.9,00.0,32.5,25.5,16.4,0000.0,0009.76,0003.50,0002.35
2021-12-04 15:56:00,,0827.0,5.01,0.00,23.7,22.9,00.0,32.5,25.5,16.6,0000.0,0010.35,0003.57,0002.40
2021-12-04 15:57:00,,0827.0,5.00,0.00,23.7,23.0,00.0,32.5,25.5,16.7,0000.0,0010.40,0003.60,0002.45
2021-12-04 15:58:00,,0826.9,5.00,0.00,23.7,23.0,00.0,32.6,25.5,16.6,0000.0,0010.72,0003.65,0002.51
2021-12-04 15:59:00,,0826.9,5.00,0.00,23.7,23.0,00.0,32.6,25.5,16.6,0000.0,0011.35,0003.69,0002.55
